FW7352 Weather Reports


time (UTC)temp
C
wind
direction
speed
KPH
gust
KPH
rain 1hr
cm
rain 24hr
cm
rain mn
cm
humidity
%
barometer
mb
20260508053050 1 228 6.4 14.5 0.00 0.00 0.00 78 1016.8
20260508051603 2 236 3.2 16.1 0.00 0.00 0.00 77 1017.0
20260508050051 2 281 6.4 19.3 0.00 0.00 0.00 76 1017.1
20260508044552 2 267 3.2 16.1 0.00 0.00 0.00 76 1017.2
20260508043051 2 254 3.2 24.1 0.00 0.00 0.00 74 1017.0
20260508041551 2 298 6.4 12.9 0.00 0.00 0.00 74 1016.8
20260508040057 2 244 3.2 11.3 0.00 0.00 0.00 73 1016.8
20260508034551 2 238 1.6 12.9 0.00 0.00 0.00 72 1016.6
20260508033058 2 219 3.2 14.5 0.00 0.00 0.00 71 1016.5
20260508031556 3 245 4.8 16.1 0.00 0.00 0.00 70 1016.5
20260508030100 3 250 4.8 16.1 0.00 0.00 0.00 72 1016.3
20260508024615 3 207 8.0 19.3 0.00 0.00 0.00 73 1016.2
20260508023049 3 221 6.4 16.1 0.00 0.00 0.00 73 1016.0
20260508021550 4 242 6.4 22.5 0.00 0.00 0.00 72 1015.9
20260508020053 4 244 4.8 20.9 0.00 0.00 0.00 74 1015.8
20260508014552 4 239 8.0 24.1 0.00 0.00 0.00 73 1015.8
20260508013046 4 226 8.0 17.7 0.00 0.00 0.00 73 1015.5
20260508011548 5 229 6.4 17.7 0.00 0.00 0.00 73 1015.3
20260508010054 5 284 6.4 24.1 0.00 0.00 0.00 72 1015.3
20260508004556 5 246 4.8 12.9 0.00 0.00 0.00 72 1015.1
20260508003049 5 271 8.0 20.9 0.00 0.00 0.00 70 1015.0
20260508001550 6 265 3.2 16.1 0.00 0.00 0.00 70 1014.9
20260508000046 6 298 4.8 22.5 0.00 0.00 0.00 68 1014.8
20260507234553 7 233 9.7 17.7 0.00 0.00 0.00 64 1014.7
20260507233058 7 261 4.8 16.1 0.00 0.00 0.00 67 1014.5
20260507231548 7 250 8.0 20.9 0.00 0.00 0.00 65 1014.5
20260507230105 8 252 9.7 25.7 0.00 0.00 0.00 63 1014.2
20260507224553 8 262 11.3 25.7 0.00 0.00 0.00 62 1014.2
20260507223050 8 302 12.9 29.0 0.00 0.00 0.00 63 1014.1
20260507221549 9 248 12.9 32.2 0.00 0.00 0.00 63 1013.9
20260507220057 9 262 8.0 25.7 0.00 0.00 0.00 62 1013.6
20260507214548 10 250 9.7 27.4 0.00 0.03 0.00 63 1013.5
20260507213052 11 262 9.7 29.0 0.00 0.03 0.00 60 1013.4
20260507211550 11 267 12.9 25.7 0.00 0.03 0.00 63 1013.4
20260507210105 11 249 12.9 30.6 0.00 0.03 0.00 62 1013.2
20260507204549 11 272 11.3 38.6 0.00 0.25 0.00 61 1013.1
20260507203113 11 319 11.3 32.2 0.00 0.25 0.00 61 1013.4
20260507201550 12 286 9.7 25.7 0.00 0.25 0.00 61 1013.3
20260507200053 11 209 8.0 22.5 0.00 0.25 0.00 63 1013.1
20260507194602 12 260 12.9 22.5 0.00 0.28 0.00 63 1013.4
20260507193050 12 306 8.0 17.7 0.00 0.28 0.00 62 1013.6
20260507191549 12 273 6.4 22.5 0.00 0.28 0.00 63 1013.6
20260507190055 12 279 9.7 24.1 0.00 0.28 0.00 67 1013.7
20260507184550 13 245 11.3 22.5 0.00 0.33 0.00 63 1013.7
20260507183047 12 262 8.0 22.5 0.00 0.33 0.00 75 1013.6
20260507181549 11 228 8.0 29.0 0.00 0.33 0.00 72 1013.5
20260507180048 11 265 8.0 22.5 0.00 0.33 0.00 75 1013.7
20260507174547 10 319 9.7 24.1 0.00 0.33 0.00 77 1013.9
20260507173125 9 225 6.4 22.5 0.00 0.33 0.00 78 1014.1
20260507171554 10 279 9.7 22.5 0.00 0.33 0.00 77 1014.3
20260507170050 10 296 4.8 22.5 0.00 0.33 0.00 81 1014.4
20260507164552 8 293 6.4 24.1 0.00 0.33 0.00 81 1014.5
20260507163047 8 306 4.8 29.0 0.00 0.33 0.00 82 1014.6
20260507161552 10 221 4.8 17.7 0.00 0.33 0.00 81 1014.8
20260507160101 8 236 6.4 16.1 0.00 0.33 0.00 85 1015.0
20260507154557 8 0 4.8 22.5 0.00 0.33 0.00 86 1015.3
20260507153057 8 257 4.8 20.9 0.00 0.33 0.00 86 1015.1
20260507151552 7 246 8.0 20.9 0.00 0.33 0.00 86 1015.3
20260507150051 6 338 8.0 17.7 0.00 0.33 0.00 86 1015.1
20260507144612 6 305 6.4 19.3 0.00 0.33 0.00 91 1015.3
20260507143059 5 275 3.2 11.3 0.00 0.33 0.00 96 1015.4
20260507141557 4 335 3.2 12.9 0.00 0.33 0.00 99 1015.7
20260507140053 3 281 3.2 11.3 0.00 0.33 0.00 99 1015.9
20260507134553 3 278 3.2 14.5 0.00 0.38 0.00 100 1015.9
20260507133125 2 234 4.8 14.5 0.00 0.38 0.00 100 1016.0
20260507131548 3 252 6.4 11.3 0.00 0.38 0.00 100 1016.2
20260507130058 3 348 4.8 11.3 0.00 0.38 0.00 100 1016.0
20260507124555 3 298 1.6 6.4 0.00 0.56 0.00 100 1016.2
20260507123052 3 298 3.2 9.7 0.00 0.56 0.00 100 1016.2
20260507121552 4 0 0.0 4.8 0.00 0.56 0.00 100 1016.0
20260507120048 4 355 0.0 9.7 0.00 0.56 0.00 100 1015.9
20260507114559 4 28 4.8 17.7 0.00 0.79 0.00 100 1015.6
20260507113047 5 296 1.6 11.3 0.00 0.79 0.00 100 1015.5
20260507111549 5 232 4.8 14.5 0.00 0.79 0.00 100 1015.3
20260507110052 5 286 4.8 14.5 0.00 0.79 0.00 100 1015.1
20260507104551 5 319 3.2 9.7 0.00 1.02 0.00 100 1015.2
20260507103054 5 250 3.2 8.0 0.00 1.02 0.00 100 1015.0
20260507101551 5 242 3.2 11.3 0.00 1.02 0.00 100 1015.1
20260507100053 5 272 3.2 12.9 0.00 1.02 0.00 100 1015.3
20260507094559 5 269 3.2 9.7 0.00 1.07 0.00 100 1015.0
20260507093054 5 252 3.2 17.7 0.00 1.07 0.00 100 1015.0
20260507091552 5 219 4.8 11.3 0.00 1.07 0.00 100 1015.0
20260507090051 5 240 3.2 14.5 0.00 1.07 0.00 100 1014.6
20260507084557 6 267 6.4 14.5 0.00 1.07 0.00 100 1015.0
20260507083056 6 254 3.2 16.1 0.00 1.07 0.00 100 1014.9
20260507081557 6 246 0.0 11.3 0.00 1.07 0.00 100 1014.7
20260507080056 6 262 6.4 11.3 0.00 1.07 0.00 100 1015.1
20260507074550 6 251 1.6 14.5 0.00 1.07 0.00 100 1015.2
20260507073101 6 263 3.2 11.3 0.00 1.07 0.00 100 1015.4
20260507071553 6 262 1.6 4.8 0.00 1.07 0.00 100 1015.3
20260507070058 6 248 3.2 16.1 0.00 1.07 0.00 100 1015.2
20260507064555 6 268 3.2 16.1 0.00 1.07 0.00 100 1015.0
20260507063049 6 235 4.8 12.9 0.00 1.07 0.00 100 1015.2
20260507061549 7 269 8.0 16.1 0.00 1.07 0.00 100 1015.3
20260507060056 7 261 6.4 12.9 0.00 1.07 0.00 100 1015.5
20260507054549 7 262 4.8 12.9 0.00 1.07 0.00 100 1015.6